EW0150 Weather Reports


time (UTC)temp
C
wind
direction
speed
KPH
gust
KPH
rain 1hr
cm
rain 24hr
cm
rain mn
cm
humidity
%
barometer
mb
20260903072004 17 266 4.8 11.3 0.00 0.00 0.00 78 1019.7
20260903071009 17 289 3.2 8.0 0.00 0.00 0.00 79 1019.6
20260903070009 16 288 1.6 4.8 0.00 0.00 0.00 80 1019.6
20260903065006 17 288 1.6 6.4 0.00 0.00 0.00 79 1019.5
20260903064007 16 288 3.2 6.4 0.00 0.00 0.00 81 1019.5
20260903063006 16 286 3.2 6.4 0.00 0.00 0.00 82 1019.5
20260903062004 16 254 1.6 4.8 0.00 0.00 0.00 85 1019.5
20260903061005 15 254 1.6 4.8 0.00 0.00 0.00 86 1019.7
20260903060007 15 254 3.2 8.0 0.00 0.00 0.00 86 1019.8
20260903055008 14 297 0.0 4.8 0.00 0.00 0.00 89 1019.8
20260903054005 13 205 0.0 1.6 0.00 0.00 0.00 90 1019.8
20260903053008 12 205 0.0 3.2 0.00 0.00 0.00 91 1019.7
20260903052005 12 205 1.6 3.2 0.00 0.00 0.00 91 1019.8
20260903051007 12 205 1.6 3.2 0.00 0.00 0.00 92 1019.7
20260903050009 12 205 1.6 3.2 0.00 0.00 0.00 92 1019.6
20260903045006 12 205 3.2 6.4 0.00 0.00 0.00 92 1019.3
20260903044008 12 204 4.8 8.0 0.00 0.00 0.00 92 1019.3
20260903043005 12 164 3.2 8.0 0.00 0.00 0.00 92 1019.2
20260903042007 11 304 1.6 4.8 0.00 0.00 0.00 92 1019.2
20260903041005 11 317 3.2 9.7 0.00 0.00 0.00 93 1019.3
20260903040010 11 173 0.0 3.2 0.00 0.00 0.00 92 1019.2
20260903035006 12 173 3.2 6.4 0.00 0.00 0.00 91 1019.2
20260903034008 12 173 4.8 6.4 0.00 0.00 0.00 92 1019.1
20260903033005 12 172 3.2 6.4 0.00 0.00 0.00 91 1019.0
20260903032007 12 172 1.6 4.8 0.00 0.00 0.00 91 1019.0
20260903031006 13 172 4.8 6.4 0.00 0.00 0.00 91 1019.1
20260903025008 13 310 1.6 4.8 0.00 0.00 0.00 89 1019.3
20260903024005 13 310 3.2 6.4 0.00 0.00 0.00 89 1019.4
20260903022006 13 312 1.6 3.2 0.00 0.00 0.00 88 1019.4
20260903021007 14 312 1.6 6.4 0.00 0.00 0.00 87 1019.4
20260903020007 14 105 1.6 4.8 0.00 0.00 0.00 87 1019.5
20260903015009 14 105 3.2 4.8 0.00 0.00 0.00 88 1019.4
20260903014005 14 105 1.6 3.2 0.00 0.00 0.00 89 1019.4
20260903013006 14 105 1.6 3.2 0.00 0.00 0.00 88 1019.3
20260903012007 14 103 0.0 3.2 0.00 0.00 0.00 88 1019.1
20260903011007 14 103 3.2 4.8 0.00 0.00 0.00 88 1019.0
20260903010009 14 103 3.2 6.4 0.00 0.00 0.00 88 1019.2
20260903005005 15 296 1.6 4.8 0.00 0.00 0.00 87 1019.4
20260903004007 15 296 4.8 9.7 0.00 0.00 0.00 87 1019.4
20260903003004 15 282 6.4 17.7 0.00 0.00 0.00 87 1019.5
20260903002010 14 236 3.2 6.4 0.00 0.00 0.00 88 1019.4
20260903001005 14 152 1.6 3.2 0.00 0.00 0.00 88 1019.3
20260903000007 14 152 1.6 3.2 0.00 0.00 0.00 88 1019.3
20260902235007 14 152 1.6 3.2 0.00 0.00 0.00 88 1019.4
20260902233006 13 152 0.0 1.6 0.00 0.00 0.00 89 1019.4
20260902232005 14 152 1.6 3.2 0.00 0.00 0.00 88 1019.5
20260902230010 14 152 1.6 4.8 0.00 0.00 0.00 87 1019.4
20260902225003 14 152 3.2 4.8 0.00 0.00 0.00 87 1019.5
20260902224005 15 152 3.2 6.4 0.00 0.00 0.00 85 1019.6
20260902223004 14 312 4.8 8.0 0.00 0.00 0.00 86 1019.5
20260902222007 14 298 6.4 12.9 0.00 0.00 0.00 87 1019.4
20260902221004 13 323 3.2 12.9 0.00 0.00 0.00 90 1019.4
20260902220014 13 351 0.0 1.6 0.00 0.00 0.00 89 1019.3
20260902215006 14 351 1.6 3.2 0.00 0.00 0.00 88 1019.3
20260902214006 14 351 1.6 3.2 0.00 0.00 0.00 88 1019.4
20260902213004 14 351 1.6 3.2 0.00 0.00 0.00 89 1019.2
20260902212006 14 351 0.0 0.0 0.00 0.00 0.00 89 1019.1
20260902211004 14 351 0.0 1.6 0.00 0.00 0.00 88 1019.1
20260902210008 15 351 1.6 4.8 0.00 0.00 0.00 85 1019.2
20260902205003 15 351 3.2 3.2 0.00 0.00 0.00 85 1019.2
20260902204007 15 351 1.6 3.2 0.00 0.00 0.00 85 1019.2
20260902203008 16 351 1.6 3.2 0.00 0.00 0.00 85 1019.2
20260902202005 15 351 0.0 0.0 0.00 0.00 0.00 87 1019.2
20260902201005 15 351 0.0 1.6 0.00 0.00 0.00 86 1019.2
20260902200006 16 351 0.0 1.6 0.00 0.00 0.00 85 1019.2
20260902195003 16 351 0.0 3.2 0.00 0.00 0.00 85 1019.2
20260902194009 16 351 1.6 3.2 0.00 0.00 0.00 84 1019.2
20260902192006 16 351 0.0 0.0 0.00 0.00 0.00 83 1019.4
20260902191004 17 351 1.6 3.2 0.00 0.00 0.00 81 1019.4
20260902190006 17 351 1.6 3.2 0.00 0.00 0.00 81 1019.4
20260902185005 17 351 1.6 1.6 0.00 0.00 0.00 81 1019.3
20260902184003 17 351 0.0 0.0 0.00 0.00 0.00 81 1019.4
20260902183003 17 351 0.0 0.0 0.00 0.00 0.00 79 1019.3
20260902181004 17 351 0.0 0.0 0.00 0.00 0.00 76 1019.1
20260902180008 18 351 1.6 3.2 0.00 0.00 0.00 74 1019.1
20260902175004 18 351 3.2 4.8 0.00 0.00 0.00 73 1019.1
20260902174005 19 350 0.0 1.6 0.00 0.00 0.00 71 1019.1
20260902173003 19 350 0.0 1.6 0.00 0.00 0.00 70 1019.0
20260902172006 20 350 1.6 3.2 0.00 0.00 0.00 69 1019.0
20260902171004 20 350 1.6 4.8 0.00 0.00 0.00 68 1018.9
20260902170007 20 350 3.2 4.8 0.00 0.00 0.00 66 1018.9
20260902165003 21 11 4.8 8.0 0.00 0.00 0.00 66 1018.8
20260902163005 21 346 6.4 9.7 0.00 0.00 0.00 62 1018.8
20260902162006 21 316 6.4 9.7 0.00 0.00 0.00 62 1018.8
20260902161004 21 329 6.4 12.9 0.00 0.00 0.00 62 1018.8
20260902160010 22 306 3.2 6.4 0.00 0.00 0.00 60 1018.9
20260902155003 22 306 3.2 6.4 0.00 0.00 0.00 58 1019.0
20260902154005 22 306 4.8 12.9 0.00 0.00 0.00 56 1019.0
20260902153006 22 309 4.8 9.7 0.00 0.00 0.00 55 1019.0
20260902152008 23 327 3.2 6.4 0.00 0.00 0.00 54 1019.0
20260902150009 23 360 3.2 6.4 0.00 0.00 0.00 56 1019.1
20260902145006 23 311 4.8 8.0 0.00 0.00 0.00 53 1019.1
20260902144009 23 311 4.8 8.0 0.00 0.00 0.00 54 1019.2
20260902143005 23 295 8.0 16.1 0.00 0.00 0.00 55 1019.2
20260902142005 23 323 6.4 14.5 0.00 0.00 0.00 54 1019.3
20260902141005 23 163 4.8 9.7 0.00 0.00 0.00 55 1019.3
20260902140007 24 335 3.2 6.4 0.00 0.00 0.00 53 1019.3
20260902135008 23 220 4.8 9.7 0.00 0.00 0.00 53 1019.5
20260902134004 23 273 8.0 17.7 0.00 0.00 0.00 51 1019.6
20260902133007 23 226 6.4 14.5 0.00 0.00 0.00 52 1019.6
20260902132005 23 229 3.2 9.7 0.00 0.00 0.00 52 1019.7
20260902130010 23 300 4.8 14.5 0.00 0.00 0.00 55 1019.7
20260902125005 23 238 8.0 16.1 0.00 0.00 0.00 51 1019.8
20260902123005 23 286 6.4 14.5 0.00 0.00 0.00 54 1020.0
20260902122005 23 194 11.3 17.7 0.00 0.00 0.00 50 1020.1
20260902121005 23 311 8.0 17.7 0.00 0.00 0.00 50 1020.1
20260902120006 24 252 9.7 16.1 0.00 0.00 0.00 52 1020.1
20260902115007 23 172 6.4 17.7 0.00 0.00 0.00 54 1020.2
20260902114004 23 205 8.0 14.5 0.00 0.00 0.00 58 1020.4
20260902113005 22 238 9.7 16.1 0.00 0.00 0.00 56 1020.4
20260902112005 22 285 11.3 19.3 0.00 0.00 0.00 59 1020.5
20260902111004 22 355 9.7 17.7 0.00 0.00 0.00 57 1020.5
20260902110008 23 298 8.0 17.7 0.00 0.00 0.00 57 1020.5
20260902105006 22 292 8.0 17.7 0.00 0.00 0.00 55 1020.6
20260902104004 22 262 8.0 17.7 0.00 0.00 0.00 55 1020.6
20260902103005 22 207 4.8 12.9 0.00 0.00 0.00 57 1020.5
20260902102005 23 300 11.3 19.3 0.00 0.00 0.00 56 1020.6
20260902101005 22 196 8.0 14.5 0.00 0.00 0.00 56 1020.8
20260902100007 22 254 9.7 17.7 0.00 0.00 0.00 56 1020.9
20260902094004 22 242 4.8 12.9 0.00 0.00 0.00 58 1020.9
20260902093004 21 234 6.4 14.5 0.00 0.00 0.00 58 1020.9
20260902092004 21 144 6.4 12.9 0.00 0.00 0.00 58 1021.0
20260902091004 21 121 6.4 14.5 0.00 0.00 0.00 59 1021.0
20260902090009 21 207 6.4 12.9 0.00 0.00 0.00 59 1021.1
20260902085004 21 215 9.7 14.5 0.00 0.00 0.00 60 1021.1
20260902084007 20 180 8.0 12.9 0.00 0.00 0.00 64 1021.1
20260902083004 20 173 6.4 12.9 0.00 0.00 0.00 66 1021.1
20260902082006 19 226 9.7 14.5 0.00 0.00 0.00 69 1021.2
20260902080006 18 261 6.4 12.9 0.00 0.00 0.00 70 1021.2
20260902075006 18 271 3.2 9.7 0.00 0.00 0.00 72 1021.2
20260902073006 17 229 4.8 8.0 0.00 0.00 0.00 73 1021.0